Weather History for CYUS - October, 2012

Change the Weather History Date:

Tuesday, October 2, 2012

  Actual Average Record
Temperature  
Mean Temperature 26 °F -  
Max Temperature 29 °F - - ()
Min Temperature 23 °F - - ()
Degree Days  
Heating Degree Days 39    
Moisture  
Dew Point -    
Average Humidity    
Maximum Humidity    
Minimum Humidity    
Precipitation  
Precipitation 0.00 in - - ()
Sea Level Pressure  
Sea Level Pressure 29.96 in    
Wind  
Wind Speed 20 mph ()    
Max Wind Speed 40 mph    
Max Gust Speed 41 mph    
Visibility 8.9 miles    
Events Snow    
T = Trace of Precipitation, MM = Missing Value Source: Averaged Metar Reports

Daily Weather History Graph

Daily Weather History Graph

Search for Another Location

Airport or City:

Trip Planner

Search our weather history database for the weather conditions in past years. The results will help you decide how hot, cold, wet, or windy it might be!

Date:

Astronomy

Oct. 02, 2012 Rise Set
Actual Time 7:33 AM CDT 6:30 PM CDT
Civil Twilight 6:36 AM CDT 7:27 PM CDT
Nautical Twilight 5:27 AM CDT 8:35 PM CDT
Astronomical Twilight 4:09 AM CDT 9:52 PM CDT
Moon 5:42 PM CDT (10/2) 11:56 AM CDT (10/2)
Length of Visible Light 12h 51m
Length of Day
10h 56m
Waning Gibbous, 94% of the Moon is Illuminated
Oct 2
Waning Gibbous
Oct 8
Last Quarter
Oct 15
New
Oct 21
First Quarter
Oct 29
Full

Hourly Weather History & Observations

Time (CDT) Temp. Windchill Dew Point Humidity Pressure Visibility Wind Dir Wind Speed Gust Speed Precip Events Conditions
12:00 AM 28.4 °F 17.5 °F - N/A% 29.93 in 9.0 mi NNW 13.8 mph - N/A   Clear
1:00 AM 28 °F - - % 29.93 in 9 mi NNW 10.4 mph - -  
1:00 AM 28.4 °F 19.1 °F - N/A% 29.93 in 9.0 mi NNW 10.4 mph - N/A   Partly Cloudy
2:00 AM 28.4 °F 19.1 °F - N/A% 29.93 in 9.0 mi NNW 10.4 mph - N/A   Mostly Cloudy
4:00 AM 28 °F - - % 29.93 in 9 mi NNW 12.7 mph - -  
4:00 AM 28.4 °F 18.0 °F - N/A% 29.93 in 9.0 mi North 12.7 mph - N/A   Mostly Cloudy
6:00 AM 28.4 °F 17.5 °F - N/A% 29.95 in 9.0 mi North 13.8 mph - N/A   Mostly Cloudy
6:22 AM 28.4 °F 18.0 °F - N/A% 29.93 in 9.0 mi NNW 12.7 mph - N/A   Overcast
7:00 AM 29 °F - - % 29.95 in 9 mi NNW 20.7 mph - -   Overcast
7:00 AM 28.4 °F 15.1 °F - N/A% 29.95 in 9.0 mi NNW 20.7 mph - N/A   Overcast
7:16 AM 28.4 °F 14.7 °F - N/A% 29.93 in 9.0 mi NNW 21.9 mph - N/A   Overcast
8:00 AM 26.6 °F 12.0 °F - N/A% 29.96 in 9.0 mi NNW 23.0 mph 32.2 mph N/A   Overcast
8:16 AM 26.6 °F 10.6 °F - N/A% 29.94 in 9.0 mi NNW 28.8 mph - N/A   Overcast
8:34 AM 24.8 °F 8.4 °F - N/A% 29.95 in 9.0 mi NNW 27.6 mph - N/A   Overcast
8:45 AM 24.8 °F 8.4 °F - N/A% 29.95 in 9.0 mi NNW 27.6 mph - N/A   Overcast
9:00 AM 24.8 °F 8.7 °F - N/A% 29.97 in 9.0 mi NNW 26.5 mph - N/A   Overcast
10:00 AM 25 °F - - % 29.98 in 9 mi NNW 25.3 mph - -   Overcast
10:00 AM 24.8 °F 9.6 °F - N/A% 29.98 in 9.0 mi NNW 23.0 mph 29.9 mph N/A   Overcast
11:00 AM 24.8 °F 9.3 °F - N/A% 29.98 in 9.0 mi NNW 24.2 mph 33.4 mph N/A   Overcast
12:00 PM 24.8 °F 9.0 °F - N/A% 29.98 in 9.0 mi NNW 25.3 mph - N/A   Overcast
12:38 PM 24.8 °F 8.4 °F - N/A% 29.96 in 9.0 mi NNW 27.6 mph - N/A   Scattered Clouds
1:00 PM 24.8 °F 8.1 °F - N/A% 29.98 in 9.0 mi NNW 28.8 mph - N/A   Partly Cloudy
1:24 PM 24.8 °F 7.9 °F - N/A% 29.96 in 9.0 mi NW 29.9 mph 35.7 mph N/A   Overcast
1:59 PM 24.8 °F 8.4 °F - N/A% 29.96 in 9.0 mi NNW 27.6 mph - N/A   Mostly Cloudy
2:00 PM 24.8 °F 8.7 °F - N/A% 29.98 in 9.0 mi NNW 26.5 mph - N/A   Mostly Cloudy
2:49 PM 24.8 °F 8.4 °F - N/A% 29.96 in 9.0 mi NW 27.6 mph - N/A Snow Light Snow
3:00 PM 24.8 °F 9.3 °F - N/A% 29.98 in 9.0 mi NNW 24.2 mph 29.9 mph N/A Snow Light Snow
3:24 PM 24.8 °F 8.1 °F - N/A% 29.96 in 9.0 mi NNW 28.8 mph - N/A   Overcast
4:00 PM 25 °F - - % 29.98 in 9 mi NNW 28.8 mph - -  
4:00 PM 24.8 °F 8.1 °F - N/A% 29.98 in 9.0 mi NNW 28.8 mph - N/A   Mostly Cloudy
4:13 PM 24.8 °F 8.4 °F - N/A% 29.97 in 6.0 mi NNW 27.6 mph 35.7 mph N/A Snow Light Snow
4:23 PM 24.8 °F 8.4 °F - N/A% 29.96 in 9.0 mi NNW 27.6 mph 34.5 mph N/A   Overcast
5:00 PM 24.8 °F 7.6 °F - N/A% 29.99 in 9.0 mi NNW 31.1 mph - N/A   Mostly Cloudy
6:00 PM 23.0 °F 5.4 °F - N/A% 29.98 in 9.0 mi NW 29.9 mph 38.0 mph N/A   Mostly Cloudy
6:05 PM 23.0 °F 5.4 °F - N/A% 29.96 in 9.0 mi NNW 29.9 mph - N/A   Mostly Cloudy
6:17 PM 23.0 °F 4.9 °F - N/A% 29.96 in 9.0 mi NNW 32.2 mph - N/A   Scattered Clouds
6:22 PM 23.0 °F 4.9 °F - N/A% 29.96 in 9.0 mi NNW 32.2 mph - N/A Snow Light Snow
6:38 PM 23.0 °F 6.0 °F - N/A% 29.96 in 9.0 mi NNW 27.6 mph 39.1 mph N/A   Partly Cloudy
7:00 PM 23 °F - - % 29.98 in 9 mi NNW 27.6 mph - -  
7:00 PM 23.0 °F 6.3 °F - N/A% 29.98 in 9.0 mi NNW 26.5 mph 36.8 mph N/A   Scattered Clouds
8:00 PM 23.0 °F 5.7 °F - N/A% 29.99 in 9.0 mi NNW 28.8 mph - N/A   Mostly Cloudy
9:00 PM 24.8 °F 7.1 °F - N/A% 29.98 in 9.0 mi NW 33.4 mph 41.4 mph N/A   Scattered Clouds
9:32 PM 24.8 °F 6.8 °F - N/A% 29.96 in 9.0 mi NNW 34.5 mph - N/A   Scattered Clouds
10:00 PM 25 °F - - % 29.99 in 9 mi NNW 36.8 mph - -  
10:00 PM 24.8 °F 5.7 °F - N/A% 29.99 in 9.0 mi NW 40.3 mph - N/A   Partly Cloudy
10:51 PM 24.8 °F 7.1 °F - N/A% 29.98 in 9.0 mi NW 33.4 mph 41.4 mph N/A   Mostly Cloudy
11:00 PM 24.8 °F 7.9 °F - N/A% 30.00 in 9.0 mi NNW 29.9 mph 40.3 mph N/A   Overcast
11:30 PM 24.8 °F 6.2 °F - N/A% 29.98 in 9.0 mi NNW 38.0 mph - N/A   Scattered Clouds